owner,sensor,date,latitude,longitude,vertical_datum,mass_concentration_of_oxygen_in_sea_water,qcFlag 
DISL,ioos:station:DISL:MHPA:1,2016-11-01T00:00:00Z,30.6671,-87.9365,1.404,7.15,1111122 
DISL,ioos:station:DISL:MHPA:1,2016-11-01T00:30:00Z,30.6671,-87.9365,1.426,6.56,1111122 
DISL,ioos:station:DISL:MHPA:1,2016-11-01T01:00:00Z,30.6671,-87.9365,1.439,6.69,1111122 
DISL,ioos:station:DISL:MHPA:1,2016-11-01T01:30:00Z,30.6671,-87.9365,1.457,5.97,1111122 
DISL,ioos:station:DISL:MHPA:1,2016-11-01T02:00:00Z,30.6671,-87.9365,1.482,6.8,1111122 
DISL,ioos:station:DISL:MHPA:1,2016-11-01T02:30:00Z,30.6671,-87.9365,1.498,7.43,1111122 
DISL,ioos:station:DISL:MHPA:1,2016-11-01T03:00:00Z,30.6671,-87.9365,1.523,5.42,1111122 
DISL,ioos:station:DISL:MHPA:1,2016-11-01T03:30:00Z,30.6671,-87.9365,1.544,4.43,1111122 
DISL,ioos:station:DISL:MHPA:1,2016-11-01T04:00:00Z,30.6671,-87.9365,1.572,4.68,1111122 
DISL,ioos:station:DISL:MHPA:1,2016-11-01T04:30:00Z,30.6671,-87.9365,1.58,4.97,1111122 
DISL,ioos:station:DISL:MHPA:1,2016-11-01T05:00:00Z,30.6671,-87.9365,1.58,6.61,1111122 
DISL,ioos:station:DISL:MHPA:1,2016-11-01T05:30:00Z,30.6671,-87.9365,1.571,5.8,1111122 
DISL,ioos:station:DISL:MHPA:1,2016-11-01T06:00:00Z,30.6671,-87.9365,1.564,6.32,1111122 
DISL,ioos:station:DISL:MHPA:1,2016-11-01T06:30:00Z,30.6671,-87.9365,1.554,5.94,1111122 
DISL,ioos:station:DISL:MHPA:1,2016-11-01T07:00:00Z,30.6671,-87.9365,1.526,4.8,1111122 
DISL,ioos:station:DISL:MHPA:1,2016-11-01T07:30:00Z,30.6671,-87.9365,1.501,4.22,1111122 
DISL,ioos:station:DISL:MHPA:1,2016-11-01T08:00:00Z,30.6671,-87.9365,1.457,4.49,1111122 
DISL,ioos:station:DISL:MHPA:1,2016-11-01T08:30:00Z,30.6671,-87.9365,1.426,4.07,1111122 
DISL,ioos:station:DISL:MHPA:1,2016-11-01T09:00:00Z,30.6671,-87.9365,1.396,3.79,1111122 
DISL,ioos:station:DISL:MHPA:1,2016-11-01T09:30:00Z,30.6671,-87.9365,1.35,3.46,1111122 
DISL,ioos:station:DISL:MHPA:1,2016-11-01T10:00:00Z,30.6671,-87.9365,1.328,3.55,1111122 
DISL,ioos:station:DISL:MHPA:1,2016-11-01T10:30:00Z,30.6671,-87.9365,1.271,3.62,1111122 
DISL,ioos:station:DISL:MHPA:1,2016-11-01T11:00:00Z,30.6671,-87.9365,1.225,2.82,1111122 
DISL,ioos:station:DISL:MHPA:1,2016-11-01T11:30:00Z,30.6671,-87.9365,1.185,2.0,1111122 
DISL,ioos:station:DISL:MHPA:1,2016-11-01T12:00:00Z,30.6671,-87.9365,1.15,1.57,1111122 
DISL,ioos:station:DISL:MHPA:1,2016-11-01T12:30:00Z,30.6671,-87.9365,1.114,3.05,1111122 
DISL,ioos:station:DISL:MHPA:1,2016-11-01T13:00:00Z,30.6671,-87.9365,1.085,2.11,1111122 
DISL,ioos:station:DISL:MHPA:1,2016-11-01T13:30:00Z,30.6671,-87.9365,1.062,2.26,1111122 
DISL,ioos:station:DISL:MHPA:1,2016-11-01T14:00:00Z,30.6671,-87.9365,1.036,2.78,1111122 
DISL,ioos:station:DISL:MHPA:1,2016-11-01T14:30:00Z,30.6671,-87.9365,1.017,2.57,1111122 
DISL,ioos:station:DISL:MHPA:1,2016-11-01T15:00:00Z,30.6671,-87.9365,1.012,3.14,1111122 
DISL,ioos:station:DISL:MHPA:1,2016-11-01T15:30:00Z,30.6671,-87.9365,1.009,3.45,1111122 
DISL,ioos:station:DISL:MHPA:1,2016-11-01T16:00:00Z,30.6671,-87.9365,1.012,2.87,1111122 
DISL,ioos:station:DISL:MHPA:1,2016-11-01T16:30:00Z,30.6671,-87.9365,1.015,3.4,1111122 
DISL,ioos:station:DISL:MHPA:1,2016-11-01T17:00:00Z,30.6671,-87.9365,1.026,5.07,1111122 
DISL,ioos:station:DISL:MHPA:1,2016-11-01T17:30:00Z,30.6671,-87.9365,1.045,4.54,1111122 
DISL,ioos:station:DISL:MHPA:1,2016-11-01T18:00:00Z,30.6671,-87.9365,1.075,5.01,1111122 
DISL,ioos:station:DISL:MHPA:1,2016-11-01T18:30:00Z,30.6671,-87.9365,1.105,5.62,1111122 
DISL,ioos:station:DISL:MHPA:1,2016-11-01T19:00:00Z,30.6671,-87.9365,1.143,5.68,1111122 
DISL,ioos:station:DISL:MHPA:1,2016-11-01T19:30:00Z,30.6671,-87.9365,1.19,6.25,1111122 
DISL,ioos:station:DISL:MHPA:1,2016-11-01T20:00:00Z,30.6671,-87.9365,1.232,6.43,1111122 
DISL,ioos:station:DISL:MHPA:1,2016-11-01T20:30:00Z,30.6671,-87.9365,1.264,7.36,1111122 
DISL,ioos:station:DISL:MHPA:1,2016-11-01T21:00:00Z,30.6671,-87.9365,1.3,7.79,1111122 
DISL,ioos:station:DISL:MHPA:1,2016-11-01T21:30:00Z,30.6671,-87.9365,1.334,7.08,1111122 
DISL,ioos:station:DISL:MHPA:1,2016-11-01T22:00:00Z,30.6671,-87.9365,1.341,7.51,1111122 
DISL,ioos:station:DISL:MHPA:1,2016-11-01T22:30:00Z,30.6671,-87.9365,1.36,7.21,1111122 
DISL,ioos:station:DISL:MHPA:1,2016-11-01T23:00:00Z,30.6671,-87.9365,1.386,7.04,1111122 
DISL,ioos:station:DISL:MHPA:1,2016-11-01T23:30:00Z,30.6671,-87.9365,1.399,7.02,1111122 
DISL,ioos:station:DISL:MHPA:1,2016-11-02T00:00:00Z,30.6671,-87.9365,1.416,6.91,1111122 
DISL,ioos:station:DISL:MHPA:1,2016-11-02T00:30:00Z,30.6671,-87.9365,1.429,5.59,1111122 
DISL,ioos:station:DISL:MHPA:1,2016-11-02T01:00:00Z,30.6671,-87.9365,1.429,6.13,1111122 
DISL,ioos:station:DISL:MHPA:1,2016-11-02T01:30:00Z,30.6671,-87.9365,1.449,5.99,1111122 
DISL,ioos:station:DISL:MHPA:1,2016-11-02T02:00:00Z,30.6671,-87.9365,1.479,6.27,1111122 
DISL,ioos:station:DISL:MHPA:1,2016-11-02T02:30:00Z,30.6671,-87.9365,1.497,6.71,1111122 
DISL,ioos:station:DISL:MHPA:1,2016-11-02T03:00:00Z,30.6671,-87.9365,1.513,6.84,1111122 
DISL,ioos:station:DISL:MHPA:1,2016-11-02T03:30:00Z,30.6671,-87.9365,1.539,6.23,1111122 
DISL,ioos:station:DISL:MHPA:1,2016-11-02T04:00:00Z,30.6671,-87.9365,1.568,4.89,1111122 
DISL,ioos:station:DISL:MHPA:1,2016-11-02T04:30:00Z,30.6671,-87.9365,1.603,4.96,1111122 
DISL,ioos:station:DISL:MHPA:1,2016-11-02T05:00:00Z,30.6671,-87.9365,1.618,3.76,1111122 
DISL,ioos:station:DISL:MHPA:1,2016-11-02T05:30:00Z,30.6671,-87.9365,1.626,6.18,1111122 
DISL,ioos:station:DISL:MHPA:1,2016-11-02T06:00:00Z,30.6671,-87.9365,1.627,5.8,1111122 
DISL,ioos:station:DISL:MHPA:1,2016-11-02T07:00:00Z,30.6671,-87.9365,1.607,4.89,1111122 
DISL,ioos:station:DISL:MHPA:1,2016-11-02T07:30:00Z,30.6671,-87.9365,1.585,3.16,1111122 
DISL,ioos:station:DISL:MHPA:1,2016-11-02T08:00:00Z,30.6671,-87.9365,1.555,3.2,1111122 
DISL,ioos:station:DISL:MHPA:1,2016-11-02T08:30:00Z,30.6671,-87.9365,1.53,4.02,1111122 
DISL,ioos:station:DISL:MHPA:1,2016-11-02T09:00:00Z,30.6671,-87.9365,1.498,3.99,1111122 
DISL,ioos:station:DISL:MHPA:1,2016-11-02T09:30:00Z,30.6671,-87.9365,1.454,3.88,1111122 
DISL,ioos:station:DISL:MHPA:1,2016-11-02T10:00:00Z,30.6671,-87.9365,1.412,3.71,1111122 
DISL,ioos:station:DISL:MHPA:1,2016-11-02T10:30:00Z,30.6671,-87.9365,1.376,3.74,1111122 
DISL,ioos:station:DISL:MHPA:1,2016-11-02T11:00:00Z,30.6671,-87.9365,1.333,3.69,1111122 
DISL,ioos:station:DISL:MHPA:1,2016-11-02T11:30:00Z,30.6671,-87.9365,1.298,3.62,1111122 
DISL,ioos:station:DISL:MHPA:1,2016-11-02T12:00:00Z,30.6671,-87.9365,1.269,3.34,1111122 
DISL,ioos:station:DISL:MHPA:1,2016-11-02T12:30:00Z,30.6671,-87.9365,1.233,2.92,1111122 
DISL,ioos:station:DISL:MHPA:1,2016-11-02T13:00:00Z,30.6671,-87.9365,1.198,3.24,1111122 
DISL,ioos:station:DISL:MHPA:1,2016-11-02T13:30:00Z,30.6671,-87.9365,1.168,3.13,1111122 
DISL,ioos:station:DISL:MHPA:1,2016-11-02T14:00:00Z,30.6671,-87.9365,1.135,3.24,1111122 
DISL,ioos:station:DISL:MHPA:1,2016-11-02T14:30:00Z,30.6671,-87.9365,1.121,3.55,1111122 
DISL,ioos:station:DISL:MHPA:1,2016-11-02T15:00:00Z,30.6671,-87.9365,1.106,3.58,1111122 
DISL,ioos:station:DISL:MHPA:1,2016-11-02T15:30:00Z,30.6671,-87.9365,1.092,4.03,1111122 
DISL,ioos:station:DISL:MHPA:1,2016-11-02T16:00:00Z,30.6671,-87.9365,1.094,4.47,1111122 
DISL,ioos:station:DISL:MHPA:1,2016-11-02T16:30:00Z,30.6671,-87.9365,1.096,4.51,1111122 
DISL,ioos:station:DISL:MHPA:1,2016-11-02T17:00:00Z,30.6671,-87.9365,1.109,4.96,1111122 
DISL,ioos:station:DISL:MHPA:1,2016-11-02T17:30:00Z,30.6671,-87.9365,1.12,5.27,1111122 
DISL,ioos:station:DISL:MHPA:1,2016-11-02T18:00:00Z,30.6671,-87.9365,1.136,5.45,1111122 
DISL,ioos:station:DISL:MHPA:1,2016-11-02T18:30:00Z,30.6671,-87.9365,1.146,5.94,1111122 
DISL,ioos:station:DISL:MHPA:1,2016-11-02T19:00:00Z,30.6671,-87.9365,1.161,5.98,1111122 
DISL,ioos:station:DISL:MHPA:1,2016-11-02T19:30:00Z,30.6671,-87.9365,1.184,6.16,1111122 
DISL,ioos:station:DISL:MHPA:1,2016-11-02T20:00:00Z,30.6671,-87.9365,1.207,6.17,1111122 
DISL,ioos:station:DISL:MHPA:1,2016-11-02T20:30:00Z,30.6671,-87.9365,1.219,6.91,1111122 
DISL,ioos:station:DISL:MHPA:1,2016-11-02T21:00:00Z,30.6671,-87.9365,1.246,6.93,1111122 
DISL,ioos:station:DISL:MHPA:1,2016-11-02T21:30:00Z,30.6671,-87.9365,1.272,7.01,1111122 
DISL,ioos:station:DISL:MHPA:1,2016-11-02T22:00:00Z,30.6671,-87.9365,1.296,7.5,1111122 
DISL,ioos:station:DISL:MHPA:1,2016-11-02T22:30:00Z,30.6671,-87.9365,1.326,7.79,1111122 
DISL,ioos:station:DISL:MHPA:1,2016-11-02T23:00:00Z,30.6671,-87.9365,1.349,7.7,1111122 
DISL,ioos:station:DISL:MHPA:1,2016-11-02T23:30:00Z,30.6671,-87.9365,1.37,7.51,1111122 
DISL,ioos:station:DISL:MHPA:1,2016-11-03T00:00:00Z,30.6671,-87.9365,1.373,6.87,1111122 
DISL,ioos:station:DISL:MHPA:1,2016-11-03T00:30:00Z,30.6671,-87.9365,1.378,6.39,1111122 
DISL,ioos:station:DISL:MHPA:1,2016-11-03T01:00:00Z,30.6671,-87.9365,1.389,6.0,1111122 
DISL,ioos:station:DISL:MHPA:1,2016-11-03T01:30:00Z,30.6671,-87.9365,1.409,5.71,1111122 
DISL,ioos:station:DISL:MHPA:1,2016-11-03T02:00:00Z,30.6671,-87.9365,1.416,5.69,1111122 
DISL,ioos:station:DISL:MHPA:1,2016-11-03T02:30:00Z,30.6671,-87.9365,1.435,5.96,1111122 
DISL,ioos:station:DISL:MHPA:1,2016-11-03T03:00:00Z,30.6671,-87.9365,1.462,5.83,1111122 
DISL,ioos:station:DISL:MHPA:1,2016-11-03T03:30:00Z,30.6671,-87.9365,1.493,5.83,1111122 
DISL,ioos:station:DISL:MHPA:1,2016-11-03T04:00:00Z,30.6671,-87.9365,1.512,6.05,1111122 
DISL,ioos:station:DISL:MHPA:1,2016-11-03T04:30:00Z,30.6671,-87.9365,1.537,6.0,1111122 
DISL,ioos:station:DISL:MHPA:1,2016-11-03T05:00:00Z,30.6671,-87.9365,1.561,5.58,1111122 
DISL,ioos:station:DISL:MHPA:1,2016-11-03T05:30:00Z,30.6671,-87.9365,1.564,5.28,1111122 
DISL,ioos:station:DISL:MHPA:1,2016-11-03T06:00:00Z,30.6671,-87.9365,1.568,5.08,1111122 
DISL,ioos:station:DISL:MHPA:1,2016-11-03T06:30:00Z,30.6671,-87.9365,1.557,5.38,1111122 
DISL,ioos:station:DISL:MHPA:1,2016-11-03T07:00:00Z,30.6671,-87.9365,1.569,5.3,1111122 
DISL,ioos:station:DISL:MHPA:1,2016-11-03T07:30:00Z,30.6671,-87.9365,1.545,5.48,1111122 
DISL,ioos:station:DISL:MHPA:1,2016-11-03T08:00:00Z,30.6671,-87.9365,1.509,5.45,1111122 
DISL,ioos:station:DISL:MHPA:1,2016-11-03T08:30:00Z,30.6671,-87.9365,1.497,4.57,1111122 
DISL,ioos:station:DISL:MHPA:1,2016-11-03T09:00:00Z,30.6671,-87.9365,1.472,4.72,1111122 
DISL,ioos:station:DISL:MHPA:1,2016-11-03T09:30:00Z,30.6671,-87.9365,1.43,4.99,1111122 
DISL,ioos:station:DISL:MHPA:1,2016-11-03T10:00:00Z,30.6671,-87.9365,1.392,5.06,1111122 
DISL,ioos:station:DISL:MHPA:1,2016-11-03T10:30:00Z,30.6671,-87.9365,1.355,4.16,1111122 
DISL,ioos:station:DISL:MHPA:1,2016-11-03T11:00:00Z,30.6671,-87.9365,1.325,3.28,1111122 
DISL,ioos:station:DISL:MHPA:1,2016-11-03T11:30:00Z,30.6671,-87.9365,1.285,2.66,1111122 
DISL,ioos:station:DISL:MHPA:1,2016-11-03T12:00:00Z,30.6671,-87.9365,1.24,2.45,1111122 
DISL,ioos:station:DISL:MHPA:1,2016-11-03T12:30:00Z,30.6671,-87.9365,1.209,1.82,1111122 
DISL,ioos:station:DISL:MHPA:1,2016-11-03T13:00:00Z,30.6671,-87.9365,1.173,2.61,1111122 
DISL,ioos:station:DISL:MHPA:1,2016-11-03T13:30:00Z,30.6671,-87.9365,1.141,2.76,1111122 
DISL,ioos:station:DISL:MHPA:1,2016-11-03T14:00:00Z,30.6671,-87.9365,1.106,3.45,1111122 
DISL,ioos:station:DISL:MHPA:1,2016-11-03T14:30:00Z,30.6671,-87.9365,1.073,3.16,1111122 
DISL,ioos:station:DISL:MHPA:1,2016-11-03T15:00:00Z,30.6671,-87.9365,1.051,3.47,1111122 
DISL,ioos:station:DISL:MHPA:1,2016-11-03T15:30:00Z,30.6671,-87.9365,1.036,3.68,1111122 
DISL,ioos:station:DISL:MHPA:1,2016-11-03T16:00:00Z,30.6671,-87.9365,1.026,3.82,1111122 
DISL,ioos:station:DISL:MHPA:1,2016-11-03T16:30:00Z,30.6671,-87.9365,1.015,4.22,1111122 
DISL,ioos:station:DISL:MHPA:1,2016-11-03T17:00:00Z,30.6671,-87.9365,1.009,4.63,1111122 
DISL,ioos:station:DISL:MHPA:1,2016-11-03T17:30:00Z,30.6671,-87.9365,0.998,4.86,1111122 
DISL,ioos:station:DISL:MHPA:1,2016-11-03T18:00:00Z,30.6671,-87.9365,0.998,5.03,1111122 
DISL,ioos:station:DISL:MHPA:1,2016-11-03T18:30:00Z,30.6671,-87.9365,1.016,5.99,1111122 
DISL,ioos:station:DISL:MHPA:1,2016-11-03T19:00:00Z,30.6671,-87.9365,1.043,6.44,1111122 
DISL,ioos:station:DISL:MHPA:1,2016-11-03T19:30:00Z,30.6671,-87.9365,1.07,6.82,1111122 
DISL,ioos:station:DISL:MHPA:1,2016-11-03T20:00:00Z,30.6671,-87.9365,1.109,6.61,1111122 
DISL,ioos:station:DISL:MHPA:1,2016-11-03T20:30:00Z,30.6671,-87.9365,1.156,6.29,1111122 
DISL,ioos:station:DISL:MHPA:1,2016-11-03T21:00:00Z,30.6671,-87.9365,1.198,7.1,1111122 
DISL,ioos:station:DISL:MHPA:1,2016-11-03T21:30:00Z,30.6671,-87.9365,1.247,7.38,1111122 
DISL,ioos:station:DISL:MHPA:1,2016-11-03T22:00:00Z,30.6671,-87.9365,1.279,7.23,1111122 
DISL,ioos:station:DISL:MHPA:1,2016-11-03T22:30:00Z,30.6671,-87.9365,1.314,7.06,1111122 
DISL,ioos:station:DISL:MHPA:1,2016-11-03T23:00:00Z,30.6671,-87.9365,1.342,7.35,1111122 
DISL,ioos:station:DISL:MHPA:1,2016-11-03T23:30:00Z,30.6671,-87.9365,1.358,7.58,1111122 
DISL,ioos:station:DISL:MHPA:1,2016-11-04T00:00:00Z,30.6671,-87.9365,1.38,7.49,1111122 
DISL,ioos:station:DISL:MHPA:1,2016-11-04T00:30:00Z,30.6671,-87.9365,1.394,7.35,1111122 
DISL,ioos:station:DISL:MHPA:1,2016-11-04T01:00:00Z,30.6671,-87.9365,1.409,7.57,1111122 
DISL,ioos:station:DISL:MHPA:1,2016-11-04T01:30:00Z,30.6671,-87.9365,1.419,7.03,1111122 
DISL,ioos:station:DISL:MHPA:1,2016-11-04T02:00:00Z,30.6671,-87.9365,1.446,6.97,1111122 
DISL,ioos:station:DISL:MHPA:1,2016-11-04T02:30:00Z,30.6671,-87.9365,1.441,6.72,1111122 
DISL,ioos:station:DISL:MHPA:1,2016-11-04T03:00:00Z,30.6671,-87.9365,1.479,6.31,1111122 
DISL,ioos:station:DISL:MHPA:1,2016-11-04T03:30:00Z,30.6671,-87.9365,1.504,6.06,1111122 
DISL,ioos:station:DISL:MHPA:1,2016-11-04T04:00:00Z,30.6671,-87.9365,1.521,6.02,1111122 
DISL,ioos:station:DISL:MHPA:1,2016-11-04T04:30:00Z,30.6671,-87.9365,1.543,5.84,1111122 
DISL,ioos:station:DISL:MHPA:1,2016-11-04T05:00:00Z,30.6671,-87.9365,1.553,5.77,1111122 
DISL,ioos:station:DISL:MHPA:1,2016-11-04T05:30:00Z,30.6671,-87.9365,1.565,5.81,1111122 
DISL,ioos:station:DISL:MHPA:1,2016-11-04T06:00:00Z,30.6671,-87.9365,1.576,5.16,1111122 
DISL,ioos:station:DISL:MHPA:1,2016-11-04T06:30:00Z,30.6671,-87.9365,1.571,4.89,1111122 
DISL,ioos:station:DISL:MHPA:1,2016-11-04T07:00:00Z,30.6671,-87.9365,1.568,4.99,1111122 
DISL,ioos:station:DISL:MHPA:1,2016-11-04T07:30:00Z,30.6671,-87.9365,1.554,4.72,1111122 
DISL,ioos:station:DISL:MHPA:1,2016-11-04T08:00:00Z,30.6671,-87.9365,1.539,4.53,1111122 
DISL,ioos:station:DISL:MHPA:1,2016-11-04T08:30:00Z,30.6671,-87.9365,1.515,4.91,1111122 
DISL,ioos:station:DISL:MHPA:1,2016-11-04T09:00:00Z,30.6671,-87.9365,1.479,4.88,1111122 
DISL,ioos:station:DISL:MHPA:1,2016-11-04T09:30:00Z,30.6671,-87.9365,1.449,5.21,1111122 
DISL,ioos:station:DISL:MHPA:1,2016-11-04T10:00:00Z,30.6671,-87.9365,1.408,4.59,1111122 
DISL,ioos:station:DISL:MHPA:1,2016-11-04T10:30:00Z,30.6671,-87.9365,1.375,4.24,1111122 
DISL,ioos:station:DISL:MHPA:1,2016-11-04T11:00:00Z,30.6671,-87.9365,1.337,3.53,1111122 
DISL,ioos:station:DISL:MHPA:1,2016-11-04T11:30:00Z,30.6671,-87.9365,1.293,3.07,1111122 
DISL,ioos:station:DISL:MHPA:1,2016-11-04T12:00:00Z,30.6671,-87.9365,1.252,3.18,1111122 
DISL,ioos:station:DISL:MHPA:1,2016-11-04T12:30:00Z,30.6671,-87.9365,1.212,3.72,1111122 
DISL,ioos:station:DISL:MHPA:1,2016-11-04T13:00:00Z,30.6671,-87.9365,1.171,3.82,1111122 
DISL,ioos:station:DISL:MHPA:1,2016-11-04T13:30:00Z,30.6671,-87.9365,1.131,2.85,1111122 
DISL,ioos:station:DISL:MHPA:1,2016-11-04T14:00:00Z,30.6671,-87.9365,1.095,2.68,1111122 
DISL,ioos:station:DISL:MHPA:1,2016-11-04T14:30:00Z,30.6671,-87.9365,1.066,2.5,1111122 
DISL,ioos:station:DISL:MHPA:1,2016-11-04T15:00:00Z,30.6671,-87.9365,1.032,3.39,1111122 
DISL,ioos:station:DISL:MHPA:1,2016-11-04T15:30:00Z,30.6671,-87.9365,1.004,4.02,1111122 
DISL,ioos:station:DISL:MHPA:1,2016-11-04T16:00:00Z,30.6671,-87.9365,0.989,3.82,1111122 
DISL,ioos:station:DISL:MHPA:1,2016-11-04T16:30:00Z,30.6671,-87.9365,0.979,3.61,1111122 
DISL,ioos:station:DISL:MHPA:1,2016-11-04T17:00:00Z,30.6671,-87.9365,0.962,3.14,1111122 
DISL,ioos:station:DISL:MHPA:1,2016-11-04T17:30:00Z,30.6671,-87.9365,0.942,3.85,1111122 
DISL,ioos:station:DISL:MHPA:1,2016-11-04T18:00:00Z,30.6671,-87.9365,0.922,4.06,1111122 
DISL,ioos:station:DISL:MHPA:1,2016-11-04T18:30:00Z,30.6671,-87.9365,0.913,5.1,1111122 
DISL,ioos:station:DISL:MHPA:1,2016-11-04T19:00:00Z,30.6671,-87.9365,0.905,4.52,1111122 
DISL,ioos:station:DISL:MHPA:1,2016-11-04T19:30:00Z,30.6671,-87.9365,0.91,5.22,1111122 
DISL,ioos:station:DISL:MHPA:1,2016-11-04T20:00:00Z,30.6671,-87.9365,0.923,5.76,1111122 
DISL,ioos:station:DISL:MHPA:1,2016-11-04T20:30:00Z,30.6671,-87.9365,0.951,5.48,1111122 
DISL,ioos:station:DISL:MHPA:1,2016-11-04T21:00:00Z,30.6671,-87.9365,0.998,5.58,1111122 
DISL,ioos:station:DISL:MHPA:1,2016-11-04T21:30:00Z,30.6671,-87.9365,1.041,6.53,1111122 
DISL,ioos:station:DISL:MHPA:1,2016-11-04T22:00:00Z,30.6671,-87.9365,1.082,6.5,1111122 
DISL,ioos:station:DISL:MHPA:1,2016-11-04T22:30:00Z,30.6671,-87.9365,1.118,6.87,1111122 
DISL,ioos:station:DISL:MHPA:1,2016-11-04T23:00:00Z,30.6671,-87.9365,1.146,6.34,1111122 
DISL,ioos:station:DISL:MHPA:1,2016-11-04T23:30:00Z,30.6671,-87.9365,1.171,7.05,1111122 
DISL,ioos:station:DISL:MHPA:1,2016-11-05T00:00:00Z,30.6671,-87.9365,1.204,7.29,1111122 
DISL,ioos:station:DISL:MHPA:1,2016-11-05T00:30:00Z,30.6671,-87.9365,1.215,7.26,1111122 
DISL,ioos:station:DISL:MHPA:1,2016-11-05T01:00:00Z,30.6671,-87.9365,1.222,7.26,1111122 
DISL,ioos:station:DISL:MHPA:1,2016-11-05T01:30:00Z,30.6671,-87.9365,1.246,6.83,1111122 
DISL,ioos:station:DISL:MHPA:1,2016-11-05T02:00:00Z,30.6671,-87.9365,1.255,6.75,1111122 
DISL,ioos:station:DISL:MHPA:1,2016-11-05T02:30:00Z,30.6671,-87.9365,1.269,6.55,1111122 
DISL,ioos:station:DISL:MHPA:1,2016-11-05T03:00:00Z,30.6671,-87.9365,1.267,6.96,1111122 
DISL,ioos:station:DISL:MHPA:1,2016-11-05T03:30:00Z,30.6671,-87.9365,1.255,7.12,1111122 
DISL,ioos:station:DISL:MHPA:1,2016-11-05T04:00:00Z,30.6671,-87.9365,1.252,6.55,1111122 
DISL,ioos:station:DISL:MHPA:1,2016-11-05T04:30:00Z,30.6671,-87.9365,1.271,6.18,1111122 
DISL,ioos:station:DISL:MHPA:1,2016-11-05T05:00:00Z,30.6671,-87.9365,1.278,6.51,1111122 
DISL,ioos:station:DISL:MHPA:1,2016-11-05T05:30:00Z,30.6671,-87.9365,1.294,5.48,1111122 
DISL,ioos:station:DISL:MHPA:1,2016-11-05T06:00:00Z,30.6671,-87.9365,1.306,5.94,1111122 
DISL,ioos:station:DISL:MHPA:1,2016-11-05T06:30:00Z,30.6671,-87.9365,1.305,5.97,1111122 
DISL,ioos:station:DISL:MHPA:1,2016-11-05T07:00:00Z,30.6671,-87.9365,1.292,5.82,1111122 
DISL,ioos:station:DISL:MHPA:1,2016-11-05T07:30:00Z,30.6671,-87.9365,1.278,5.65,1111122 
DISL,ioos:station:DISL:MHPA:1,2016-11-05T08:00:00Z,30.6671,-87.9365,1.273,6.07,1111122 
DISL,ioos:station:DISL:MHPA:1,2016-11-05T08:30:00Z,30.6671,-87.9365,1.277,6.0,1111122 
DISL,ioos:station:DISL:MHPA:1,2016-11-05T09:00:00Z,30.6671,-87.9365,1.269,5.83,1111122 
DISL,ioos:station:DISL:MHPA:1,2016-11-05T09:30:00Z,30.6671,-87.9365,1.265,5.58,1111122 
DISL,ioos:station:DISL:MHPA:1,2016-11-05T10:00:00Z,30.6671,-87.9365,1.257,5.92,1111122 
DISL,ioos:station:DISL:MHPA:1,2016-11-05T10:30:00Z,30.6671,-87.9365,1.256,5.72,1111122 
DISL,ioos:station:DISL:MHPA:1,2016-11-05T11:00:00Z,30.6671,-87.9365,1.283,5.54,1111122 
DISL,ioos:station:DISL:MHPA:1,2016-11-05T11:30:00Z,30.6671,-87.9365,1.272,5.4,1111122 
DISL,ioos:station:DISL:MHPA:1,2016-11-05T12:00:00Z,30.6671,-87.9365,1.251,5.02,1111122 
DISL,ioos:station:DISL:MHPA:1,2016-11-05T12:30:00Z,30.6671,-87.9365,1.228,5.11,1111122 
DISL,ioos:station:DISL:MHPA:1,2016-11-05T13:00:00Z,30.6671,-87.9365,1.204,5.06,1111122 
DISL,ioos:station:DISL:MHPA:1,2016-11-05T13:30:00Z,30.6671,-87.9365,1.156,4.13,1111122 
DISL,ioos:station:DISL:MHPA:1,2016-11-05T14:00:00Z,30.6671,-87.9365,1.113,4.32,1111122 
DISL,ioos:station:DISL:MHPA:1,2016-11-05T14:30:00Z,30.6671,-87.9365,1.091,4.19,1111122 
DISL,ioos:station:DISL:MHPA:1,2016-11-05T15:00:00Z,30.6671,-87.9365,1.081,4.43,1111122 
DISL,ioos:station:DISL:MHPA:1,2016-11-05T15:30:00Z,30.6671,-87.9365,1.071,4.9,1111122 
DISL,ioos:station:DISL:MHPA:1,2016-11-05T16:00:00Z,30.6671,-87.9365,1.061,4.74,1111122 
DISL,ioos:station:DISL:MHPA:1,2016-11-05T16:30:00Z,30.6671,-87.9365,1.051,5.08,1111122 
DISL,ioos:station:DISL:MHPA:1,2016-11-05T17:00:00Z,30.6671,-87.9365,1.051,5.04,1111122 
DISL,ioos:station:DISL:MHPA:1,2016-11-05T17:30:00Z,30.6671,-87.9365,1.049,5.61,1111122 
DISL,ioos:station:DISL:MHPA:1,2016-11-05T18:00:00Z,30.6671,-87.9365,1.064,6.21,1111122 
DISL,ioos:station:DISL:MHPA:1,2016-11-05T18:30:00Z,30.6671,-87.9365,1.084,6.06,1111122 
DISL,ioos:station:DISL:MHPA:1,2016-11-05T19:00:00Z,30.6671,-87.9365,1.066,6.47,1111122 
DISL,ioos:station:DISL:MHPA:1,2016-11-05T19:30:00Z,30.6671,-87.9365,1.048,6.55,1111122 
DISL,ioos:station:DISL:MHPA:1,2016-11-05T20:00:00Z,30.6671,-87.9365,1.073,6.56,1111122 
DISL,ioos:station:DISL:MHPA:1,2016-11-05T20:30:00Z,30.6671,-87.9365,1.086,7.64,1111122 
DISL,ioos:station:DISL:MHPA:1,2016-11-05T21:00:00Z,30.6671,-87.9365,1.102,6.82,1111122 
DISL,ioos:station:DISL:MHPA:1,2016-11-05T21:30:00Z,30.6671,-87.9365,1.125,7.12,1111122 
DISL,ioos:station:DISL:MHPA:1,2016-11-05T22:00:00Z,30.6671,-87.9365,1.148,7.29,1111122 
DISL,ioos:station:DISL:MHPA:1,2016-11-05T22:30:00Z,30.6671,-87.9365,1.162,7.1,1111122 
DISL,ioos:station:DISL:MHPA:1,2016-11-05T23:00:00Z,30.6671,-87.9365,1.191,6.65,1111122 
DISL,ioos:station:DISL:MHPA:1,2016-11-05T23:30:00Z,30.6671,-87.9365,1.225,6.45,1111122 
DISL,ioos:station:DISL:MHPA:1,2016-11-06T00:00:00Z,30.6671,-87.9365,1.246,6.67,1111122 
DISL,ioos:station:DISL:MHPA:1,2016-11-06T00:30:00Z,30.6671,-87.9365,1.262,6.74,1111122 
DISL,ioos:station:DISL:MHPA:1,2016-11-06T01:00:00Z,30.6671,-87.9365,1.278,7.03,1111122 
DISL,ioos:station:DISL:MHPA:1,2016-11-06T01:30:00Z,30.6671,-87.9365,1.287,6.04,1111122 
DISL,ioos:station:DISL:MHPA:1,2016-11-06T02:00:00Z,30.6671,-87.9365,1.304,6.64,1111122 
DISL,ioos:station:DISL:MHPA:1,2016-11-06T02:30:00Z,30.6671,-87.9365,1.321,6.4,1111122 
DISL,ioos:station:DISL:MHPA:1,2016-11-06T03:00:00Z,30.6671,-87.9365,1.348,6.14,1111122 
DISL,ioos:station:DISL:MHPA:1,2016-11-06T03:30:00Z,30.6671,-87.9365,1.359,6.22,1111122 
DISL,ioos:station:DISL:MHPA:1,2016-11-06T04:00:00Z,30.6671,-87.9365,1.389,6.72,1111122 
DISL,ioos:station:DISL:MHPA:1,2016-11-06T04:30:00Z,30.6671,-87.9365,1.408,6.97,1111122 
DISL,ioos:station:DISL:MHPA:1,2016-11-06T05:00:00Z,30.6671,-87.9365,1.427,7.18,1111122 
DISL,ioos:station:DISL:MHPA:1,2016-11-06T05:30:00Z,30.6671,-87.9365,1.436,6.85,1111122 
DISL,ioos:station:DISL:MHPA:1,2016-11-06T06:00:00Z,30.6671,-87.9365,1.441,6.75,1111122 
DISL,ioos:station:DISL:MHPA:1,2016-11-06T06:30:00Z,30.6671,-87.9365,1.455,6.52,1111122 
DISL,ioos:station:DISL:MHPA:1,2016-11-06T07:00:00Z,30.6671,-87.9365,1.468,6.7,1111122 
DISL,ioos:station:DISL:MHPA:1,2016-11-06T07:30:00Z,30.6671,-87.9365,1.455,6.69,1111122 
DISL,ioos:station:DISL:MHPA:1,2016-11-06T08:00:00Z,30.6671,-87.9365,1.457,6.4,1111122 
DISL,ioos:station:DISL:MHPA:1,2016-11-06T08:30:00Z,30.6671,-87.9365,1.452,6.08,1111122 
DISL,ioos:station:DISL:MHPA:1,2016-11-06T09:00:00Z,30.6671,-87.9365,1.44,5.8,1111122 
DISL,ioos:station:DISL:MHPA:1,2016-11-06T09:30:00Z,30.6671,-87.9365,1.435,6.03,1111122 
DISL,ioos:station:DISL:MHPA:1,2016-11-06T10:00:00Z,30.6671,-87.9365,1.401,5.52,1111122 
DISL,ioos:station:DISL:MHPA:1,2016-11-06T10:30:00Z,30.6671,-87.9365,1.379,5.12,1111122 
DISL,ioos:station:DISL:MHPA:1,2016-11-06T11:00:00Z,30.6671,-87.9365,1.346,4.92,1111122 
DISL,ioos:station:DISL:MHPA:1,2016-11-06T11:30:00Z,30.6671,-87.9365,1.309,4.92,1111122 
DISL,ioos:station:DISL:MHPA:1,2016-11-06T12:00:00Z,30.6671,-87.9365,1.276,4.56,1111122 
DISL,ioos:station:DISL:MHPA:1,2016-11-06T12:30:00Z,30.6671,-87.9365,1.243,4.61,1111122 
DISL,ioos:station:DISL:MHPA:1,2016-11-06T13:00:00Z,30.6671,-87.9365,1.223,4.79,1111122 
DISL,ioos:station:DISL:MHPA:1,2016-11-06T13:30:00Z,30.6671,-87.9365,1.202,4.59,1111122 
DISL,ioos:station:DISL:MHPA:1,2016-11-06T14:00:00Z,30.6671,-87.9365,1.178,4.54,1111122 
DISL,ioos:station:DISL:MHPA:1,2016-11-06T14:30:00Z,30.6671,-87.9365,1.152,5.43,1111122 
DISL,ioos:station:DISL:MHPA:1,2016-11-06T15:00:00Z,30.6671,-87.9365,1.12,5.29,1111122 
DISL,ioos:station:DISL:MHPA:1,2016-11-06T15:30:00Z,30.6671,-87.9365,1.091,5.58,1111122 
DISL,ioos:station:DISL:MHPA:1,2016-11-06T16:00:00Z,30.6671,-87.9365,1.061,5.65,1111122 